Voltar ao catálogo

SCOUT G-1 DEB

AtivoPO
NORAD 18561·DEBRIS·🇺🇸 United States

Lançado Sep 16, 1987 de Vandenberg Space Force Base

Loading…

Próximas Passagens (próximas 24 horas)

TLE

AtualizadoSource: Space-Track

Época: Sep 13, 2026, 08:57 UTC

1 18561U 87080G   26256.37360103  .00000311  00000-0  43329-3 0  9997
2 18561  90.3481 113.3103 0109445 168.4698 317.9286 13.53371137919273

Acompanhe SCOUT G-1 DEB em tempo real com AllMySat

Download on the App Store